This is the latest recevied weather packets stored in our database for station/object WP4PW. If no packets are shown the sender has not sent any weather packets the latest 10 day(s).
| Time | Temp. | Humidity | Pressure | Rain* | Wind** | Luminosity | Snow |
|---|---|---|---|---|---|---|---|
| 1777981614 | 28.33° C | 85% | 1021.2 hPa | 0 mm | - | 183 W/m² | - |
| 1777981310 | 28.33° C | 86% | 1021.2 hPa | 0 mm | - | 176 W/m² | - |
| 1777981006 | 28.33° C | 87% | 1021.2 hPa | 0 mm | - | 122 W/m² | - |
| 1777980703 | 28.33° C | 86% | 1021.1 hPa | 0 mm | - | 129 W/m² | - |
| 1777980399 | 28.33° C | 86% | 1021.2 hPa | 0 mm | - | 101 W/m² | - |
| 1777980097 | 27.78° C | 87% | 1020.9 hPa | 0 mm | - | 87 W/m² | - |
| 1777979791 | 27.78° C | 86% | 1020.9 hPa | 0 mm | - | 81 W/m² | - |
| 1777979488 | 27.78° C | 88% | 1020.8 hPa | 0 mm | - | 77 W/m² | - |
| 1777979184 | 27.22° C | 89% | 1020.5 hPa | 0 mm | - | 69 W/m² | - |
| 1777978882 | 26.67° C | 91% | 1020.8 hPa | 0 mm | - | 81 W/m² | - |
| 1777978578 | 26.11° C | 93% | 1020.6 hPa | 0 mm | - | 104 W/m² | - |
| 1777978274 | 25.56° C | 94% | 1020.7 hPa | 0 mm | - | 104 W/m² | - |
| 1777977971 | 25.56° C | 95% | 1020.6 hPa | 0 mm | - | 90 W/m² | - |
| 1777977669 | 25° C | 96% | 1020.5 hPa | 0 mm | - | 64 W/m² | - |
| 1777977365 | 25° C | 97% | 1020.3 hPa | 0 mm | - | 35 W/m² | - |
| 1777977063 | 25° C | 97% | 1020.4 hPa | 0 mm | - | 33 W/m² | - |
| 1777976760 | 25° C | 97% | 1020.2 hPa | 0 mm | - | 40 W/m² | - |
| 1777976457 | 24.44° C | 98% | 1020.3 hPa | 0 mm | - | 28 W/m² | - |
| 1777976156 | 24.44° C | 98% | 1020.1 hPa | 0 mm | - | 18 W/m² | - |
| 1777975851 | 24.44° C | 98% | 1020.1 hPa | 0 mm | - | 15 W/m² | - |
| 1777975548 | 24.44° C | 98% | 1020 hPa | 0 mm | - | 11 W/m² | - |
| 1777975245 | 24.44° C | 98% | 1020.3 hPa | 0 mm | - | 6 W/m² | - |
| 1777974941 | 24.44° C | 98% | 1020 hPa | 0 mm | - | 4 W/m² | - |
| 1777974638 | 24.44° C | 98% | 1020.1 hPa | 0 mm | - | 2 W/m² | - |
| 1777974334 | 24.44° C | 98% | 1020 hPa | 0 mm | - | 1 W/m² | - |
* Rain latest hour (hover to see other rain measurements)
** Current wind speed in m/s (hover to see current wind gust speed)